Date,TemperatureHighF,TemperatureAvgF,TemperatureLowF,DewpointHighF,DewpointAvgF,DewpointLowF,HumidityHigh,HumidityAvg,HumidityLow,PressureMaxIn,PressureMinIn,WindSpeedMaxMPH,WindSpeedAvgMPH,GustSpeedMaxMPH,PrecipitationSumIn
2013-1-1,47.0,38.5,27.0,28.0,19.0,7.0,100,52,24,0.00,40.00,21,10,36,0.01
2013-1-2,56.0,43.3,29.0,15.0,7.8,3.0,54,25,12,0.00,40.00,19,10,35,0.00
2013-1-3,55.0,46.6,39.0,11.0,4.5,-2.0,24,18,12,0.00,40.00,13,6,29,0.00
2013-1-4,60.0,45.6,26.0,14.0,1.9,-4.0,55,19,7,0.00,40.00,11,6,24,0.00
2013-1-5,64.0,39.3,23.0,16.0,7.3,-5.0,59,37,6,0.00,40.00,7,2,14,0.00
2013-1-6,48.0,37.7,24.0,38.0,30.4,16.0,100,76,53,0.00,40.00,9,4,23,0.13
2013-1-7,55.0,41.5,32.0,37.0,26.4,17.0,100,61,24,0.00,40.00,8,2,20,0.20
2013-1-8,70.0,45.9,27.0,29.0,23.7,16.0,74,49,13,0.00,40.00,8,2,18,0.01
2013-1-9,72.0,50.6,34.0,44.0,31.8,24.0,98,55,19,0.00,40.00,7,2,15,0.00
2013-1-10,43.0,37.6,31.0,43.0,33.9,28.0,100,87,67,0.00,40.00,15,10,35,0.07
2013-1-11,43.0,33.5,23.0,29.0,21.6,11.0,99,66,31,0.00,40.00,12,4,35,0.03
2013-1-12,45.0,32.1,20.0,29.0,19.9,11.0,100,68,27,0.00,40.00,8,2,15,0.01
2013-1-13,45.0,35.3,22.0,26.0,16.9,7.0,89,50,26,0.00,40.00,8,4,16,0.00
2013-1-14,45.0,34.1,27.0,14.0,-1.1,-14.0,46,24,8,0.00,40.00,11,7,24,0.00
2013-1-15,47.0,39.4,29.0,13.0,4.3,-7.0,31,23,17,0.00,40.00,15,10,27,0.00
2013-1-16,58.0,51.0,44.0,19.0,15.6,11.0,31,24,20,0.00,40.00,15,10,33,0.00
2013-1-17,64.0,54.5,50.0,14.0,11.1,9.0,22,18,12,0.00,40.00,18,13,36,0.00
2013-1-18,67.0,57.3,53.0,15.0,12.8,11.0,21,17,13,0.00,40.00,15,11,31,0.00
2013-1-19,67.0,56.3,45.0,15.0,9.9,6.0,25,16,11,0.00,40.00,13,8,23,0.00
2013-1-20,69.0,53.2,35.0,13.0,7.1,2.0,32,17,8,0.00,40.00,11,4,19,0.00
2013-1-21,70.0,54.6,32.0,12.0,1.0,-4.0,41,13,6,0.00,40.00,12,5,26,0.00
2013-1-22,74.0,56.1,42.0,23.0,6.2,-3.0,46,16,6,0.00,40.00,10,4,19,0.00
2013-1-23,73.0,58.3,42.0,38.0,29.4,23.0,57,35,19,0.00,40.00,8,3,17,0.00
2013-1-24,61.0,54.6,49.0,55.0,47.5,38.0,100,77,50,0.00,40.00,11,2,21,0.03
2013-1-25,58.0,53.2,50.0,53.0,49.0,43.0,100,86,67,0.00,40.00,10,4,21,0.78
2013-1-26,57.0,51.6,49.0,54.0,51.0,49.0,100,98,82,0.00,40.00,7,3,21,0.52
2013-1-27,50.0,44.7,37.0,49.0,43.1,36.0,100,94,86,0.00,40.00,8,5,19,0.27
2013-1-28,45.0,38.7,32.0,36.0,32.1,24.0,97,78,47,0.00,40.00,9,5,20,0.13
2013-1-29,52.0,39.8,28.0,39.0,33.6,27.0,100,80,55,0.00,40.00,9,3,18,0.07
2013-1-30,64.0,51.6,33.0,33.0,27.3,23.0,100,42,25,0.00,40.00,18,8,34,0.01
2013-1-31,64.0,55.4,38.0,29.0,27.5,25.0,66,36,25,0.00,40.00,15,9,27,0.00